HORS 3 (RS81S)

Last updated on Sun Dec 07 2025 00:03:12 GMT+0000 (Coordinated Universal Time)

1 61753U 24199U 25340.58529161 .00040132 00000+0 93459-3 0 9990 2 61753 97.3231 209.0971 0006328 267.3473 92.7050 15.42151629107757
UTC large
Height (km)
Speed (km/s)
/
Latitude / Longitude
Inclination (degrees)
Orbital Period (minutes)
Azimuth
Elevation
Range (km)
Doppler Factor

Next 0 passes for location: London (51.5072 / 0.1276)

Sorry there are no passes over London.